Wind_Speed
19 16 15 14 14 14 15 15 16 17 18 18 18 18 18 18 18 17 16 15 15 16 16 16 16 17 17 17 18 18 19 19 20 21 21 22 23 22 22 20 20 22
18 17 16 16 16 16 16 17 17 18 18 18 19 19 19 19 17 15 14 14 15 15 15 16 16 17 17 17 18 18 19 19 20 20 21 21 22 21 20 19 20 22
19 18 18 17 17 17 17 18 18 19 19 19 20 20 20 18 16 14 14 14 14 15 15 16 16 17 18 18 19 19 19 20 20 21 21 21 20 19 18 19 20 22
19 19 19 18 18 18 18 19 19 19 19 20 20 20 20 17 15 14 14 14 14 15 16 17 17 18 19 19 19 19 19 20 20 20 20 20 19 17 17 18 20 21
20 20 20 20 20 19 20 20 20 19 20 20 20 21 19 16 14 14 14 15 15 16 17 18 18 18 18 18 18 18 19 20 20 20 19 19 18 17 16 17 19 21
21 21 20 21 20 20 21 21 21 20 20 21 21 21 19 16 14 14 15 16 17 17 18 18 18 18 18 18 18 18 18 19 19 19 18 18 17 16 16 17 17 19
21 21 21 21 21 21 22 22 22 21 21 21 21 20 18 15 14 14 15 17 17 18 17 17 17 17 17 17 18 18 18 19 18 18 17 17 17 16 16 17 17 17
21 22 22 21 21 22 23 23 22 22 21 21 21 19 17 15 14 15 16 17 17 18 17 16 16 17 17 18 19 19 19 19 18 17 17 17 17 17 17 18 18 18
22 23 23 23 23 24 24 24 22 22 21 21 20 18 16 15 15 16 17 17 18 18 17 16 16 17 18 19 19 20 19 19 19 17 16 16 17 17 17 18 18 18
23 24 24 24 24 25 25 24 22 21 21 20 19 17 16 16 16 16 17 18 18 18 17 16 16 17 18 19 19 20 19 19 19 17 17 16 16 16 16 16 16 17
24 25 25 25 26 26 25 23 22 21 20 19 18 17 16 16 17 17 18 18 18 18 17 16 16 17 18 19 19 19 19 18 18 16 16 15 15 15 14 15 16 17
25 26 26 26 26 26 25 23 21 20 19 18 17 17 17 17 17 18 19 19 18 18 17 16 16 17 18 19 19 19 18 17 16 15 14 14 13 14 15 16 17 18
25 26 27 26 25 25 24 22 20 18 17 17 17 17 17 18 18 19 19 19 18 18 17 16 16 17 18 18 19 19 18 16 15 14 14 14 15 16 18 18 18 18
25 26 26 24 23 23 22 20 19 17 16 17 17 17 18 18 18 19 18 18 18 17 17 16 16 17 18 18 18 18 17 16 15 15 15 16 16 17 17 17 17 16
24 24 22 21 21 21 20 18 17 16 16 17 17 17 17 18 18 18 18 18 17 16 16 16 16 17 18 18 18 17 16 15 15 15 15 15 15 15 15 15 15 14
21 20 20 19 20 19 18 17 16 16 16 16 17 17 17 18 18 18 18 17 16 16 16 16 16 16 17 17 16 16 15 15 14 14 14 13 13 13 13 14 14 14
19 19 19 18 19 18 17 17 16 16 16 16 16 17 17 17 17 17 17 17 16 16 15 15 16 16 16 16 15 15 14 13 13 12 11 11 11 11 12 12 12 13
20 20 19 18 18 17 17 17 16 16 16 16 16 17 17 17 17 17 17 16 15 15 15 15 15 15 15 15 14 14 13 11 11 10 10 10 10 10 11 11 11 11
22 21 19 18 18 17 17 17 16 16 16 16 16 16 17 17 17 17 16 15 15 15 14 14 14 14 14 13 13 12 11 10 10 9 9 10 10 10 10 10 10 10
23 21 19 18 17 17 16 16 16 15 15 15 16 17 17 17 17 16 16 15 14 14 14 14 13 13 13 12 11 10 9 9 9 9 9 9 10 11 11 10 10 9
23 21 19 17 17 17 16 16 15 15 15 15 16 17 17 16 16 16 15 14 14 13 13 12 12 12 11 10 10 9 8 8 8 8 8 9 10 12 12 12 11 10
22 20 18 17 17 17 16 16 15 15 15 15 16 16 16 16 15 15 14 13 13 12 11 11 10 10 10 9 8 8 8 8 8 9 9 9 10 12 12 12 12 11
21 19 18 18 18 17 16 15 15 14 14 15 15 15 15 15 15 14 13 12 11 10 9 9 9 9 9 8 8 8 8 9 9 10 10 10 10 12 12 11 11 11
20 19 19 18 18 16 15 14 14 14 14 14 14 14 14 14 13 12 11 10 9 9 9 8 9 9 8 8 9 9 9 10 10 10 10 10 11 12 11 10 10 10
20 20 19 18 17 16 15 14 13 13 13 13 13 13 13 13 12 11 9 8 8 8 8 8 8 9 9 9 9 10 9 9 10 10 10 11 11 11 10 10 10 10
20 20 19 18 16 15 14 13 13 13 12 12 11 11 11 11 10 9 8 7 7 8 8 8 8 9 9 9 9 9 9 9 9 9 10 10 10 10 10 10 11 10
Wind_Direction
213 220 230 241 251 258 264 269 275 278 282 288 295 300 306 309 309 306 307 310 314 318 318 317 315 312 310 309 308 307 306 307 308 309 311 311 313 314 313 312 308 305
220 228 236 244 249 256 263 268 274 275 280 287 293 300 306 307 306 305 308 313 316 318 317 315 314 311 310 309 308 307 307 308 310 311 311 312 313 314 313 312 309 307
227 233 238 243 247 254 260 266 271 273 278 286 293 300 304 304 303 305 309 313 314 315 313 311 311 310 310 310 310 309 309 309 311 312 312 313 315 314 313 312 312 312
231 236 239 244 247 253 259 265 269 271 278 285 292 299 301 301 301 304 309 311 310 310 309 308 309 309 310 311 311 310 310 311 312 312 312 314 315 313 312 313 313 313
235 238 241 244 248 255 260 265 268 271 277 283 291 297 298 298 300 304 307 307 307 308 307 308 310 311 311 311 312 312 311 312 312 313 314 315 314 312 312 312 312 314
237 240 242 245 250 257 261 266 269 271 276 282 290 294 294 295 298 302 304 305 306 307 307 310 311 313 314 313 314 313 312 312 312 313 314 313 312 312 311 310 311 314
237 240 243 247 253 259 263 268 270 270 274 280 288 291 290 292 295 298 302 304 307 307 307 310 312 315 317 316 315 313 311 310 310 311 311 310 310 308 307 307 308 307
237 239 244 250 256 262 266 269 269 268 272 279 285 287 287 288 291 295 300 304 306 306 307 310 313 317 319 318 316 313 310 309 309 308 307 307 307 305 305 305 306 305
242 244 249 252 258 265 267 267 265 264 270 278 281 283 282 284 287 293 299 303 304 304 305 308 314 318 320 319 317 313 310 308 307 305 304 304 303 303 304 305 307 310
249 250 253 255 260 264 264 262 261 262 269 275 277 279 279 281 286 292 298 301 301 302 304 307 314 318 320 319 316 312 309 306 304 303 303 303 303 303 304 307 312 316
252 252 254 257 260 260 258 256 256 259 267 272 274 275 276 280 285 291 296 298 299 301 303 307 313 318 320 319 316 311 307 304 303 304 305 305 304 306 307 310 317 319
253 255 257 260 258 255 252 251 252 258 265 268 271 273 275 280 285 290 294 297 299 301 304 308 312 317 320 318 314 311 309 307 306 305 306 306 306 308 310 314 319 320
259 261 261 259 255 250 247 247 251 258 263 266 269 272 276 280 286 291 295 297 298 301 304 308 312 316 319 318 316 315 313 310 306 304 304 304 306 309 311 315 318 319
266 265 258 252 247 243 242 245 252 257 261 265 269 273 278 284 289 292 295 296 298 300 304 308 312 317 320 320 319 317 313 309 304 304 306 308 310 312 314 317 320 320
266 258 247 240 237 237 240 246 253 256 260 265 269 275 281 286 290 293 295 296 298 302 306 310 313 318 321 322 320 316 313 309 305 306 309 312 316 319 322 325 327 329
258 244 235 231 233 236 241 247 252 255 260 265 270 277 283 287 291 293 295 298 300 303 307 309 314 319 322 321 318 315 313 310 308 309 311 317 323 328 332 335 336 337
251 236 230 230 233 238 242 246 250 253 259 265 271 278 283 287 290 292 295 299 301 303 306 310 315 320 321 319 316 314 312 311 311 311 314 320 327 331 335 338 339 340
249 235 230 233 235 239 242 244 248 252 258 265 271 277 282 285 289 292 296 299 300 303 308 312 316 320 320 319 317 315 315 315 313 315 320 325 329 334 339 342 345 348
245 234 232 235 237 240 242 244 248 253 259 265 271 276 281 284 288 293 296 299 302 305 310 314 318 320 321 320 318 318 321 323 322 326 333 338 343 347 347 349 352 356
240 233 232 235 237 240 241 244 250 255 260 266 271 276 280 284 290 294 298 301 304 308 312 316 318 320 321 321 320 322 328 333 335 340 345 353 2 1 356 355 356 358
234 231 232 236 237 239 242 245 250 255 260 266 271 275 281 287 292 296 299 301 305 308 312 316 318 320 321 321 321 324 331 336 341 346 350 359 7 5 1 359 359 359
229 230 232 234 235 237 241 244 249 254 259 266 271 277 284 289 292 295 298 300 303 307 311 314 317 318 319 320 320 322 328 333 338 342 345 352 358 359 357 357 359 359
226 228 230 232 234 236 239 243 248 254 260 267 274 280 285 289 292 294 296 298 301 305 309 311 314 315 317 318 318 320 324 327 333 337 338 343 350 352 349 349 353 354
224 226 228 230 232 234 238 242 248 255 262 269 275 281 285 288 290 291 292 295 299 302 305 308 310 311 312 315 318 322 325 328 333 335 336 341 347 347 344 344 348 352
221 223 225 227 229 232 236 241 248 254 261 268 274 281 284 285 286 288 290 295 300 302 304 306 305 306 311 317 321 325 329 332 334 335 340 345 345 343 344 349 354 357
219 221 223 224 227 231 234 240 247 253 261 269 274 277 278 279 283 287 291 296 300 301 302 303 305 309 314 319 323 328 333 336 337 341 345 344 344 348 356 2 4 6
Height
3139 3140 3142 3143 3143 3144 3145 3145 3145 3145 3145 3146 3145 3145 3144 3144 3143 3142 3141 3140 3139 3138 3138 3137 3136 3135 3134 3132 3131 3130 3128 3127 3125 3124 3122 3120 3118 3117 3115 3114 3112 3110
3138 3139 3140 3141 3142 3143 3144 3144 3144 3144 3144 3145 3144 3144 3143 3142 3141 3141 3140 3139 3138 3137 3136 3135 3134 3133 3132 3131 3130 3128 3126 3125 3123 3122 3120 3118 3116 3115 3113 3112 3110 3108
3137 3138 3139 3140 3141 3142 3142 3143 3143 3143 3143 3143 3143 3142 3142 3141 3140 3140 3139 3138 3137 3136 3135 3134 3133 3132 3131 3129 3128 3126 3124 3123 3121 3120 3118 3117 3115 3113 3111 3110 3108 3107
3135 3136 3138 3139 3139 3140 3141 3142 3142 3142 3142 3142 3142 3141 3141 3140 3139 3138 3138 3137 3136 3135 3134 3133 3132 3131 3129 3128 3126 3125 3123 3121 3120 3118 3117 3115 3113 3111 3110 3109 3108 3106
3134 3135 3136 3137 3138 3139 3140 3140 3141 3141 3141 3141 3140 3140 3139 3139 3138 3137 3137 3136 3135 3134 3133 3132 3130 3129 3128 3126 3125 3123 3121 3120 3118 3117 3115 3113 3111 3110 3108 3107 3106 3105
3133 3134 3135 3136 3137 3138 3139 3139 3140 3140 3140 3140 3139 3139 3138 3137 3137 3136 3136 3135 3134 3133 3132 3130 3129 3128 3126 3125 3123 3122 3120 3118 3116 3115 3113 3111 3110 3108 3107 3105 3104 3103
3132 3133 3134 3135 3136 3137 3138 3138 3138 3138 3138 3138 3138 3138 3137 3137 3136 3135 3135 3134 3133 3132 3130 3129 3128 3126 3125 3123 3122 3120 3119 3117 3115 3113 3111 3109 3108 3106 3105 3103 3102 3101
3130 3132 3133 3134 3135 3136 3136 3137 3137 3137 3137 3137 3137 3136 3136 3136 3135 3135 3134 3133 3132 3131 3129 3128 3127 3125 3124 3122 3120 3118 3117 3115 3113 3111 3109 3107 3106 3104 3103 3101 3100 3099
3129 3130 3131 3132 3133 3134 3135 3135 3135 3135 3135 3135 3136 3135 3135 3135 3134 3134 3133 3132 3131 3130 3128 3127 3125 3124 3122 3120 3119 3117 3115 3113 3112 3110 3108 3106 3104 3102 3101 3100 3098 3097
3127 3128 3129 3130 3132 3132 3133 3133 3133 3133 3134 3134 3134 3134 3134 3133 3133 3132 3131 3131 3130 3129 3127 3126 3124 3123 3121 3119 3117 3115 3114 3112 3110 3108 3106 3104 3103 3101 3099 3098 3097 3095
3125 3126 3127 3128 3129 3130 3131 3131 3131 3132 3132 3133 3133 3133 3132 3132 3132 3131 3130 3130 3129 3127 3126 3124 3123 3121 3119 3118 3116 3114 3112 3110 3108 3106 3105 3103 3101 3100 3098 3097 3095 3094
3124 3125 3126 3127 3127 3128 3129 3129 3130 3130 3131 3131 3131 3131 3131 3131 3130 3130 3129 3128 3127 3126 3124 3123 3121 3120 3118 3116 3114 3112 3110 3108 3106 3105 3103 3102 3100 3098 3097 3095 3094 3092
3122 3123 3124 3125 3126 3126 3127 3127 3128 3129 3129 3130 3130 3130 3130 3129 3129 3128 3128 3127 3125 3124 3123 3121 3120 3118 3117 3115 3113 3111 3108 3107 3105 3103 3102 3100 3099 3097 3095 3094 3092 3091
3121 3121 3122 3123 3124 3124 3125 3126 3127 3127 3128 3128 3128 3128 3128 3128 3127 3127 3126 3125 3124 3123 3121 3120 3118 3117 3115 3113 3111 3109 3107 3105 3104 3102 3101 3099 3098 3096 3094 3092 3091 3089
3118 3119 3120 3121 3122 3123 3123 3124 3125 3126 3127 3127 3127 3127 3127 3126 3126 3125 3124 3123 3122 3121 3119 3118 3117 3115 3113 3111 3109 3107 3106 3104 3103 3101 3100 3098 3097 3095 3093 3091 3089 3088
3116 3117 3118 3119 3120 3121 3122 3123 3124 3124 3125 3125 3125 3125 3125 3125 3124 3123 3123 3122 3120 3119 3118 3116 3115 3113 3111 3110 3108 3106 3105 3103 3102 3100 3099 3097 3096 3094 3092 3090 3089 3087
3115 3116 3116 3117 3118 3119 3120 3121 3122 3123 3123 3123 3123 3124 3123 3123 3123 3122 3121 3120 3119 3117 3116 3115 3113 3112 3110 3108 3107 3105 3104 3102 3101 3099 3098 3096 3095 3093 3092 3090 3088 3087
3113 3114 3115 3116 3116 3117 3118 3119 3120 3121 3121 3122 3122 3122 3122 3122 3121 3120 3119 3118 3117 3116 3114 3113 3112 3110 3109 3107 3106 3104 3102 3101 3100 3098 3097 3096 3094 3093 3091 3090 3088 3086
3112 3112 3114 3114 3115 3116 3117 3117 3118 3119 3119 3120 3120 3120 3120 3120 3119 3118 3117 3116 3115 3114 3113 3111 3110 3109 3107 3106 3104 3103 3102 3100 3099 3098 3096 3095 3094 3092 3091 3089 3088 3086
3110 3111 3112 3113 3114 3114 3115 3116 3117 3117 3118 3118 3119 3119 3119 3118 3117 3116 3115 3114 3113 3112 3111 3110 3108 3107 3106 3105 3103 3102 3101 3099 3098 3097 3096 3094 3093 3092 3090 3089 3088 3086
3108 3109 3110 3111 3112 3113 3114 3114 3115 3116 3116 3117 3117 3117 3117 3116 3115 3114 3114 3113 3112 3111 3110 3108 3107 3106 3105 3104 3102 3101 3100 3099 3098 3097 3095 3094 3093 3092 3091 3089 3088 3086
3107 3108 3109 3110 3111 3111 3112 3113 3113 3114 3115 3115 3115 3115 3114 3114 3113 3113 3112 3111 3110 3109 3108 3107 3106 3105 3104 3103 3102 3101 3099 3098 3097 3096 3095 3094 3093 3092 3091 3089 3088 3087
3105 3106 3107 3108 3109 3110 3111 3111 3112 3112 3113 3113 3113 3113 3112 3112 3111 3111 3110 3109 3109 3108 3107 3106 3105 3104 3103 3102 3101 3100 3099 3098 3097 3096 3095 3094 3093 3092 3091 3089 3088 3087
3103 3105 3106 3107 3108 3108 3109 3110 3110 3110 3111 3111 3111 3111 3111 3110 3110 3109 3109 3108 3107 3106 3105 3105 3104 3103 3102 3101 3100 3099 3098 3097 3096 3095 3094 3093 3092 3091 3090 3089 3088 3086
3102 3103 3104 3105 3106 3106 3107 3108 3108 3109 3109 3109 3109 3109 3109 3109 3108 3108 3107 3107 3106 3105 3104 3104 3103 3102 3101 3100 3099 3098 3097 3096 3096 3095 3094 3093 3092 3091 3090 3088 3087 3086
3100 3101 3102 3103 3104 3104 3105 3106 3107 3107 3108 3108 3108 3107 3107 3107 3106 3106 3106 3105 3105 3104 3104 3103 3102 3101 3100 3100 3099 3098 3097 3096 3095 3094 3093 3092 3091 3090 3089 3088 3087 3085